Weather History for Grand Canyon, AZ

Change the Weather History Date:

Thursday, November 8, 2012

  Actual Average Record
Temperature  
Mean Temperature 40 °F -  
Max Temperature 61 °F 51 °F 71 °F (2006)
Min Temperature 19 °F 22 °F 3 °F (2011)
Degree Days  
Heating Degree Days 25    
Moisture  
Dew Point 24 °F    
Average Humidity 51    
Maximum Humidity 80    
Minimum Humidity 17    
Precipitation  
Precipitation 0.00 in - - ()
Sea Level Pressure  
Sea Level Pressure 29.93 in    
Wind  
Wind Speed 9 mph (SSW)    
Max Wind Speed 25 mph    
Max Gust Speed 34 mph    
Visibility 10 miles    
Events      
Averages and records for this station are not official NWS values.
T = Trace of Precipitation, MM = Missing Value Source: NWS Daily Summary

Daily Weather History Graph

Daily Weather History Graph

Search for Another Location

Airport:

Trip Planner

Search our weather history database for the weather conditions in past years. The results will help you decide how hot, cold, wet, or windy it might be!

Date:

Astronomy

Nov. 08, 2012 Rise Set
Actual Time 6:58 AM MST 5:25 PM MST
Civil Twilight 6:31 AM MST 5:52 PM MST
Nautical Twilight 6:00 AM MST 6:23 PM MST
Astronomical Twilight 5:30 AM MST 6:53 PM MST
Moon 1:08 AM MST (11/8) 1:59 PM MST (11/8)
Length of Visible Light 11h 21m
Length of Day
10h 27m
Waning Crescent, 32% of the Moon is Illuminated
Nov 8
Waning Crescent
Nov 13
New
Nov 20
First Quarter
Nov 28
Full
Dec 6
Last Quarter

Hourly Weather History & Observations

Time (MST) Temp. Windchill Dew Point Humidity Pressure Visibility Wind Dir Wind Speed Gust Speed Precip Events Conditions
12:54 AM 28.0 °F - 10.9 °F 49% 29.98 in 10.0 mi Calm Calm - N/A   Clear
1:54 AM 28.0 °F - 12.0 °F 51% 29.96 in 10.0 mi Calm Calm - N/A   Clear
2:54 AM 26.1 °F - 10.9 °F 53% 29.96 in 10.0 mi Calm Calm - N/A   Clear
3:54 AM 25.0 °F - 12.0 °F 58% 29.95 in 10.0 mi Calm Calm - N/A   Clear
4:54 AM 21.9 °F 17.2 °F 10.0 °F 60% 29.97 in 10.0 mi NE 3.5 mph - N/A   Clear
5:54 AM 21.9 °F - 10.9 °F 63% 30.04 in 10.0 mi Calm Calm - N/A   Clear
6:54 AM 19.9 °F - 10.0 °F 65% 30.07 in 10.0 mi Calm Calm - N/A   Clear
7:54 AM 28.9 °F - 14.0 °F 54% 30.08 in 10.0 mi Calm Calm - N/A   Clear
8:54 AM 52.0 °F - 21.9 °F 31% 30.00 in 10.0 mi South 11.5 mph 19.6 mph N/A   Clear
9:54 AM 55.9 °F - 21.9 °F 27% 29.98 in 10.0 mi SSW 15.0 mph 25.3 mph N/A   Clear
10:54 AM 60.1 °F - 19.9 °F 21% 29.96 in 10.0 mi SW 25.3 mph 29.9 mph N/A   Clear
11:54 AM 61.0 °F - 18.0 °F 19% 29.93 in 10.0 mi SW 25.3 mph 33.4 mph N/A   Clear
12:54 PM 60.1 °F - 16.0 °F 18% 29.91 in 10.0 mi SW 23.0 mph 32.2 mph N/A   Clear
1:54 PM 60.1 °F - 17.1 °F 19% 29.89 in 10.0 mi SW 20.7 mph 31.1 mph N/A   Scattered Clouds
2:54 PM 57.9 °F - 12.9 °F 17% 29.90 in 10.0 mi SW 20.7 mph 29.9 mph N/A   Mostly Cloudy
3:54 PM 55.0 °F - 21.0 °F 27% 29.90 in 10.0 mi SSW 17.3 mph 24.2 mph 0.00 in   Overcast
4:54 PM 52.0 °F - 30.9 °F 45% 29.92 in 10.0 mi South 11.5 mph - N/A   Overcast
5:54 PM 48.9 °F - 33.1 °F 54% 29.93 in 10.0 mi SSW 15.0 mph 24.2 mph N/A   Overcast
6:54 PM 48.9 °F - 34.0 °F 56% 29.92 in 10.0 mi SW 15.0 mph 24.2 mph 0.00 in   Overcast
7:54 PM 48.0 °F - 34.0 °F 58% 29.89 in 10.0 mi SSW 13.8 mph 21.9 mph N/A   Overcast
8:17 PM 48.2 °F - 35.6 °F 62% 29.97 in 10.0 mi SSW 15.0 mph 24.2 mph N/A   Overcast
8:54 PM 48.0 °F - 36.0 °F 63% 29.80 in 10.0 mi SSW 21.9 mph 34.5 mph N/A   Overcast
9:01 PM 48.2 °F - 37.4 °F 66% 29.96 in 10.0 mi SSW 19.6 mph 31.1 mph N/A   Overcast
9:30 PM 46.4 °F 39.2 °F 37.4 °F 71% 29.97 in 10.0 mi SSW 18.4 mph 31.1 mph N/A   Overcast
9:54 PM 46.0 °F 39.0 °F 39.0 °F 76% 29.80 in 10.0 mi SSW 17.3 mph 23.0 mph N/A   Overcast
10:54 PM 46.0 °F 40.2 °F 37.9 °F 73% 29.77 in 10.0 mi SSW 12.7 mph 23.0 mph N/A   Overcast
11:13 PM 46.4 °F 40.7 °F 37.4 °F 71% 29.95 in 10.0 mi SSW 12.7 mph 19.6 mph N/A   Overcast
11:29 PM 46.4 °F 40.1 °F 37.4 °F 71% 29.95 in 10.0 mi SSW 15.0 mph 23.0 mph N/A   Overcast
11:54 PM 45.0 °F 37.4 °F 39.0 °F 80% 29.75 in 10.0 mi SSW 18.4 mph 28.8 mph N/A   Scattered Clouds